Oak Grove Middle School FL US WEATHERSTEM current weather conditions

sailwx.info

Wind from 278 at 1 knots gusting 5

Air temperature 23.8° C
Dewpoint 19.5° C

Last reported at 2020-Feb-17 22:50 UTC.
Time now 2020-Feb-18 00:03 UTC

Location: N 27°57' W 082°45'.
View on Google Maps.

See reports from other nearby stations

  
Tides and Currents Weather Stations Pressure Air Temp Water Temp Dewpoint Dewpoint Depression Visibility Wind Speed Wind Dir Waves Ship Positions
date/time (UTC)wind fromknots sea level pressurealtimeterstation pressurevisibilityair tempwater tempwave heightnotes
2020-Feb-17 22:50 278 1 gusting 5 23.8
2020-Feb-17 22:40 284 3 gusting 6 24.1
2020-Feb-17 22:30 239 2 gusting 6 24.6
2020-Feb-17 22:20 279 5 gusting 6 24.8
2020-Feb-17 22:10 236 1 gusting 5 25.3
2020-Feb-17 22:00 272 2 gusting 8 25.7
2020-Feb-17 21:50 249 1 gusting 4 26.2
2020-Feb-17 21:40 248 4 gusting 6 26.5
2020-Feb-17 21:30 238 4 gusting 5 27.1
2020-Feb-17 21:20 161 5 gusting 5 27.3
2020-Feb-17 21:10 254 2 gusting 3 27.4
2020-Feb-17 21:00 236 2 gusting 7 27.4
2020-Feb-17 20:50 130 2 gusting 7 27.4
2020-Feb-17 20:40 290 0 gusting 4 27.1
2020-Feb-17 20:30 240 1 gusting 5 27.8
2020-Feb-17 20:20 259 1 gusting 6 27.8
2020-Feb-17 20:10 248 0 gusting 8 27.7
2020-Feb-17 20:00 244 3 gusting 4 27.3
2020-Feb-17 19:50 240 0 gusting 3 26.5
2020-Feb-17 19:40 296 0 gusting 6 26.6
2020-Feb-17 19:30 216 2 gusting 6 27.2
2020-Feb-17 19:20 229 4 gusting 7 26.9
2020-Feb-17 19:10 235 1 gusting 4 26.6
2020-Feb-17 19:00 246 1 gusting 6 25.6
2020-Feb-17 18:50 245 1 gusting 4 25.8
2020-Feb-17 18:40 24.9
2020-Feb-17 18:30 105 1 gusting 4 24.9
2020-Feb-17 18:20 104 5 gusting 6 24.9
2020-Feb-17 18:10 075 3 gusting 7 25.3
2020-Feb-17 18:00 086 2 gusting 7 25.4
2020-Feb-17 17:50 096 2 gusting 8 25.2
2020-Feb-17 17:40 110 2 gusting 8 25.1
2020-Feb-17 17:30 097 6 gusting 8 24.9
2020-Feb-17 17:20 082 6 gusting 8 25.1
2020-Feb-17 17:10 105 5 gusting 9 24.8
2020-Feb-17 17:00 085 3 gusting 7 24.6
2020-Feb-17 16:50 080 1 gusting 6 24.6
2020-Feb-17 16:40 037 4 gusting 8 24.5
2020-Feb-17 16:30 089 6 gusting 7 23.9
2020-Feb-17 16:20 090 6 gusting 8 23.8
2020-Feb-17 16:10 101 5 gusting 7 23.7
2020-Feb-17 16:00 119 3 gusting 9 23.5
2020-Feb-17 15:50 100 3 gusting 7 23.5
2020-Feb-17 15:40 104 7 gusting 8 23.1
2020-Feb-17 15:30 118 6 gusting 8 22.7
2020-Feb-17 15:20 082 7 gusting 9 22.6
2020-Feb-17 15:10 115 2 gusting 8 22.7
2020-Feb-17 15:00 095 6 gusting 7 22.6
2020-Feb-17 14:50 101 6 gusting 7 22.3
2020-Feb-17 14:40 123 6 gusting 7 22.2
2020-Feb-17 14:30 071 3 gusting 6 22.2
2020-Feb-17 14:20 103 2 gusting 6 22.0
2020-Feb-17 14:10 077 3 gusting 6 21.6
2020-Feb-17 14:00 128 3 gusting 6 21.4
2020-Feb-17 13:40 130 0 gusting 3 21.2
2020-Feb-17 13:30 104 2 gusting 3 20.9
2020-Feb-17 13:20 115 0 gusting 2 20.7
2020-Feb-17 13:10 20.2
2020-Feb-17 13:00 19.6
2020-Feb-17 12:40 19.1
2020-Feb-17 12:30 18.9
2020-Feb-17 12:20 19.1
2020-Feb-17 12:10 19.0
2020-Feb-17 12:00 19.1
2020-Feb-17 11:50 19.2
2020-Feb-17 11:40 19.5
2020-Feb-17 11:30 19.5
2020-Feb-17 11:20 19.5
2020-Feb-17 11:10 19.7
2020-Feb-17 11:00 19.8
2020-Feb-17 10:50 20.1
2020-Feb-17 10:40 230 0 gusting 0 20.3
2020-Feb-17 10:30 20.3
2020-Feb-17 10:20 20.4
2020-Feb-17 10:10 20.4
2020-Feb-17 10:00 20.6
2020-Feb-17 09:50 229 1 gusting 5 20.6
2020-Feb-17 09:40 20.7
2020-Feb-17 09:30 263 0 gusting 1 20.8
2020-Feb-17 09:20 20.9
2020-Feb-17 09:10 20.9
2020-Feb-17 09:00 20.9
2020-Feb-17 08:50 20.9
2020-Feb-17 08:30 20.9
2020-Feb-17 08:20 20.9
2020-Feb-17 08:10 20.9
2020-Feb-17 08:00 211 0 gusting 3 20.8
2020-Feb-17 07:50 178 3 gusting 4 20.8
2020-Feb-17 07:40 192 2 gusting 4 20.8
2020-Feb-17 07:30 20.8
2020-Feb-17 07:20 132 2 gusting 5 20.8
2020-Feb-17 07:10 161 1 gusting 6 20.8
2020-Feb-17 07:00 153 2 gusting 7 20.8
2020-Feb-17 06:50 103 2 gusting 7 20.8
2020-Feb-17 06:40 098 2 gusting 6 20.8
2020-Feb-17 06:30 148 0 gusting 4 20.8
2020-Feb-17 06:20 091 0 gusting 6 20.7
2020-Feb-17 06:10 20.7
2020-Feb-17 06:00 124 0 gusting 6 20.7
2020-Feb-17 05:50 142 2 gusting 6 20.8
2020-Feb-17 05:40 107 1 gusting 9 20.8
2020-Feb-17 05:30 105 3 gusting 6 20.8
2020-Feb-17 05:20 104 3 gusting 6 20.8
2020-Feb-17 05:10 081 3 gusting 6 20.8
2020-Feb-17 05:00 086 2 gusting 6 20.7
2020-Feb-17 04:50 089 0 gusting 7 20.7
2020-Feb-17 04:40 101 0 gusting 5 20.6
2020-Feb-17 04:30 047 1 gusting 6 20.6
2020-Feb-17 04:10 106 0 gusting 7 20.5
2020-Feb-17 04:00 090 6 gusting 6 20.5
2020-Feb-17 03:50 078 2 gusting 6 20.5
2020-Feb-17 03:40 071 20.5
2020-Feb-17 03:30 024 1 gusting 5 20.6
2020-Feb-17 03:20 337 2 gusting 4 20.6
2020-Feb-17 03:10 034 4 gusting 6 20.7
2020-Feb-17 03:00 20.8
2020-Feb-17 02:50 068 1 gusting 2 20.7
2020-Feb-17 02:30 052 0 gusting 2 20.6
2020-Feb-17 02:20 20.5
2020-Feb-17 02:10 20.3
2020-Feb-17 02:00 265 0 gusting 0 20.3
2020-Feb-17 01:50 20.4
2020-Feb-17 01:40 20.7
2020-Feb-17 01:30 20.8
2020-Feb-17 01:20 20.9
2020-Feb-17 01:10 20.9
2020-Feb-17 01:00 265 0 gusting 4 21.1
2020-Feb-17 00:50 298 0 gusting 2 21.1
2020-Feb-17 00:40 21.2
2020-Feb-17 00:30 21.3
2020-Feb-17 00:20 250 1 gusting 6 21.4
2020-Feb-17 00:10 274 0 gusting 2 21.3
2020-Feb-17 00:00 270 0 gusting 3 21.2
2020-Feb-16 23:50 293 2 gusting 3 21.2
2020-Feb-16 23:40 315 0 gusting 3 21.1
2020-Feb-16 23:30 279 3 gusting 6 21.1
2020-Feb-16 23:20 268 1 gusting 8 21.2
2020-Feb-16 23:10 290 2 gusting 6 21.3
2020-Feb-16 23:00 257 6 gusting 9 21.4
2020-Feb-16 22:50 273 3 gusting 8 21.7
2020-Feb-16 22:40 273 1 gusting 8 22.0
2020-Feb-16 22:30 292 4 gusting 8 22.3
2020-Feb-16 22:20 250 3 gusting 6 22.7
2020-Feb-16 22:10 265 2 gusting 7 22.7
2020-Feb-16 22:00 264 6 gusting 9 22.8
2020-Feb-16 21:50 273 3 gusting 6 23.2
2020-Feb-16 21:40 263 3 gusting 6 23.9
2020-Feb-16 21:30 281 6 gusting 7 24.6
2020-Feb-16 21:20 246 3 gusting 9 24.7
2020-Feb-16 21:10 244 2 gusting 5 25.7
2020-Feb-16 21:00 225 2 gusting 7 25.9
2020-Feb-16 20:50 249 4 gusting 7 27.2
2020-Feb-16 20:40 204 2 gusting 6 26.6
2020-Feb-16 20:30 250 3 gusting 7 26.7
2020-Feb-16 20:20 242 4 gusting 8 27.3
2020-Feb-16 20:10 211 4 gusting 8 27.4
2020-Feb-16 20:00 240 1 gusting 6 27.1
2020-Feb-16 19:50 205 4 gusting 9 27.9
2020-Feb-16 19:40 211 4 gusting 5 27.8
2020-Feb-16 19:30 304 2 gusting 6 27.4
2020-Feb-16 19:20 234 1 gusting 6 27.8
2020-Feb-16 19:10 263 5 gusting 6 27.3
2020-Feb-16 19:00 067 1 gusting 6 26.3
2020-Feb-16 18:50 134 1 gusting 2 25.9
2020-Feb-16 18:40 092 1 gusting 5 25.8
2020-Feb-16 18:30 105 2 gusting 6 25.3
2020-Feb-16 18:20 107 5 gusting 6 25.4
2020-Feb-16 18:10 096 2 gusting 7 25.3
2020-Feb-16 18:00 092 5 gusting 9 25.6
2020-Feb-16 17:50 100 3 gusting 7 26.0
2020-Feb-16 17:40 098 2 gusting 6 25.7
2020-Feb-16 17:30 140 2 gusting 9 26.2
2020-Feb-16 17:20 124 2 gusting 13 25.7
2020-Feb-16 17:10 103 5 gusting 9 26.1
2020-Feb-16 17:00 184 3 gusting 9 25.9
2020-Feb-16 16:50 113 3 gusting 10 25.7
2020-Feb-16 16:40 076 6 gusting 12 25.9
2020-Feb-16 16:30 108 5 gusting 10 25.5
2020-Feb-16 16:20 172 5 gusting 10 25.1
2020-Feb-16 16:10 113 5 gusting 10 25.0
2020-Feb-16 16:00 154 8 gusting 13 24.5
2020-Feb-16 15:50 127 6 gusting 10 23.9
2020-Feb-16 15:40 126 9 gusting 11 23.6
2020-Feb-16 15:30 096 8 gusting 12 22.7
2020-Feb-16 15:20 117 5 gusting 10 22.2
2020-Feb-16 15:10 100 6 gusting 9 21.4
2020-Feb-16 15:00 090 3 gusting 8 21.3
2020-Feb-16 14:40 117 3 gusting 7 20.8
2020-Feb-16 14:30 101 2 gusting 6 20.2
2020-Feb-16 14:20 086 3 gusting 8 19.9
2020-Feb-16 14:10 090 2 gusting 8 19.6
2020-Feb-16 13:30 094 1 gusting 8 18.8
2020-Feb-16 13:20 119 6 gusting 8 18.4
2020-Feb-16 13:10 119 1 gusting 6 18.2
2020-Feb-16 13:00 086 6 gusting 8 17.9
2020-Feb-16 12:50 099 3 gusting 6 17.6
2020-Feb-16 12:40 089 2 gusting 6 17.3
2020-Feb-16 12:30 082 3 gusting 6 17.2
2020-Feb-16 12:20 098 3 gusting 6 17.1
2020-Feb-16 12:10 103 2 gusting 6 17.0
2020-Feb-16 12:00 081 3 gusting 7 17.0
2020-Feb-16 11:50 098 6 gusting 7 17.0
2020-Feb-16 11:40 099 3 gusting 6 16.9
2020-Feb-16 11:30 100 3 gusting 5 16.8
2020-Feb-16 11:20 082 0 gusting 6 16.8
2020-Feb-16 11:10 098 2 gusting 6 16.8
2020-Feb-16 11:00 093 2 gusting 6 16.8
2020-Feb-16 10:50 086 2 gusting 6 16.9
2020-Feb-16 10:30 096 5 gusting 6 17.0
2020-Feb-16 10:20 079 1 gusting 6 17.1
2020-Feb-16 10:10 090 2 gusting 5 17.1
2020-Feb-16 10:00 062 1 gusting 4 17.2
2020-Feb-16 09:50 083 1 gusting 6 17.2
2020-Feb-16 09:40 099 3 gusting 6 17.3
2020-Feb-16 09:30 085 2 gusting 6 17.4
2020-Feb-16 09:20 092 5 gusting 6 17.4
2020-Feb-16 09:10 090 3 gusting 6 17.6
2020-Feb-16 09:00 073 3 gusting 6 17.6
2020-Feb-16 08:50 074 2 gusting 5 17.7
2020-Feb-16 08:40 092 1 gusting 5 17.7
2020-Feb-16 08:30 079 6 gusting 5 17.8
2020-Feb-16 08:20 083 3 gusting 5 17.9
2020-Feb-16 08:10 071 4 gusting 7 17.9
2020-Feb-16 08:00 088 2 gusting 6 18.1
2020-Feb-16 07:50 106 2 gusting 7 18.1
2020-Feb-16 07:40 078 3 gusting 6 18.1
2020-Feb-16 07:20 084 1 gusting 6 18.2
2020-Feb-16 07:10 084 3 gusting 6 18.3
2020-Feb-16 07:00 081 3 gusting 7 18.3
2020-Feb-16 06:50 090 2 gusting 7 18.3
2020-Feb-16 06:40 083 4 gusting 6 18.4
2020-Feb-16 06:30 104 3 gusting 7 18.4
2020-Feb-16 06:20 095 3 gusting 6 18.4
2020-Feb-16 06:10 094 2 gusting 6 18.5
2020-Feb-16 05:50 094 3 gusting 6 18.7
2020-Feb-16 05:40 059 4 gusting 6 18.7
2020-Feb-16 05:30 082 2 gusting 6 18.8
2020-Feb-16 05:20 067 3 gusting 6 18.9
2020-Feb-16 05:10 097 2 gusting 7 19.0
2020-Feb-16 05:00 067 6 gusting 6 19.1
2020-Feb-16 04:50 063 3 gusting 6 19.2
2020-Feb-16 04:40 077 4 gusting 6 19.3
2020-Feb-16 04:30 092 5 gusting 7 19.5
2020-Feb-16 04:20 065 3 gusting 6 19.6
2020-Feb-16 04:10 093 3 gusting 6 19.7
2020-Feb-16 03:50 056 3 gusting 6 19.8
2020-Feb-16 03:40 065 2 gusting 7 19.9
2020-Feb-16 03:30 065 2 gusting 7 20.0
2020-Feb-16 03:20 098 2 gusting 7 20.1
2020-Feb-16 03:10 064 1 gusting 7 20.2
2020-Feb-16 03:00 103 3 gusting 7 20.3
2020-Feb-16 02:50 084 2 gusting 7 20.4
2020-Feb-16 02:40 058 3 gusting 6 20.5
2020-Feb-16 02:30 083 1 gusting 5 20.7
2020-Feb-16 02:20 084 3 gusting 7 20.8
2020-Feb-16 02:10 049 3 gusting 7 21.0
2020-Feb-16 02:00 050 3 gusting 8 21.2
2020-Feb-16 01:50 070 4 gusting 9 21.3
2020-Feb-16 01:40 087 4 gusting 10 21.5
2020-Feb-16 01:30 082 6 gusting 13 21.7
2020-Feb-16 01:20 074 7 gusting 14 21.9
2020-Feb-16 01:10 070 5 gusting 9 22.1
2020-Feb-16 01:00 071 5 gusting 13 22.3
2020-Feb-16 00:50 085 6 gusting 9 22.6
2020-Feb-16 00:40 053 4 gusting 9 22.9
2020-Feb-16 00:30 074 3 gusting 10 23.2
2020-Feb-16 00:20 078 6 gusting 8 23.3
2020-Feb-16 00:10 094 3 gusting 6 23.4
2020-Feb-16 00:00 067 1 gusting 7 23.4